| time (UTC) | temp C | wind direction | speed KPH | gust KPH | rain 1hr cm | rain 24hr cm | rain mn cm | humidity % | barometer mb |
| 20260504141037 | 8 | 100 | 9.7 | 12.9 | 0.00 | 0.00 | 0.00 | 35 | 1014.8 |
| 20260504140534 | 8 | 105 | 11.3 | 14.5 | 0.00 | 0.00 | 0.00 | 36 | 1014.7 |
| 20260504130458 | 7 | 101 | 12.9 | 17.7 | 0.00 | 0.00 | 0.00 | 31 | 1014.7 |
| 20260504110345 | 7 | 20 | 11.3 | 22.5 | 0.00 | 0.00 | 0.00 | 34 | 1013.6 |
| 20260504100258 | 8 | 35 | 8.0 | 9.7 | 0.00 | 0.00 | 0.00 | 24 | 1012.6 |
| 20260504081651 | 11 | 96 | 22.5 | 35.4 | 0.00 | 0.00 | 0.00 | 13 | 1010.7 |
| 20260504081147 | 11 | 84 | 16.1 | 25.7 | 0.00 | 0.00 | 0.00 | 13 | 1010.7 |
| 20260504080644 | 11 | 62 | 19.3 | 24.1 | 0.00 | 0.00 | 0.00 | 13 | 1010.6 |
| 20260504080140 | 11 | 76 | 25.7 | 33.8 | 0.00 | 0.00 | 0.00 | 12 | 1010.3 |
| 20260504070109 | 12 | 20 | 11.3 | 14.5 | 0.00 | 0.00 | 0.00 | 14 | 1009.2 |
| 20260504050457 | 11 | 20 | 0.0 | 0.0 | 0.00 | 0.00 | 0.00 | 12 | 1007.3 |
| 20260504045954 | 12 | 20 | 4.8 | 4.8 | 0.00 | 0.00 | 0.00 | 12 | 1007.3 |
| 20260504045450 | 12 | 20 | 0.0 | 0.0 | 0.00 | 0.00 | 0.00 | 12 | 1007.5 |
| 20260504044946 | 13 | 20 | 0.0 | 0.0 | 0.00 | 0.00 | 0.00 | 10 | 1007.4 |
| 20260504044443 | 13 | 20 | 0.0 | 0.0 | 0.00 | 0.00 | 0.00 | 10 | 1007.4 |
| 20260504043941 | 13 | 20 | 3.2 | 3.2 | 0.00 | 0.00 | 0.00 | 10 | 1007.3 |
| 20260504043437 | 12 | 20 | 4.8 | 4.8 | 0.00 | 0.00 | 0.00 | 10 | 1007.3 |
| 20260504042935 | 11 | 20 | 4.8 | 4.8 | 0.00 | 0.00 | 0.00 | 14 | 1007.4 |
| 20260504042432 | 12 | 20 | 4.8 | 4.8 | 0.00 | 0.00 | 0.00 | 13 | 1007.3 |
| 20260504041928 | 15 | 20 | 3.2 | 3.2 | 0.00 | 0.00 | 0.00 | 10 | 1007.2 |
| 20260504041424 | 15 | 20 | 3.2 | 4.8 | 0.00 | 0.00 | 0.00 | 10 | 1007.3 |
| 20260504040920 | 15 | 20 | 6.4 | 8.0 | 0.00 | 0.00 | 0.00 | 10 | 1007.4 |
| 20260504040419 | 15 | 20 | 4.8 | 8.0 | 0.00 | 0.00 | 0.00 | 10 | 1007.3 |
| 20260504035914 | 16 | 20 | 1.6 | 3.2 | 0.00 | 0.00 | 0.00 | 10 | 1007.4 |
| 20260504035412 | 16 | 21 | 8.0 | 8.0 | 0.00 | 0.00 | 0.00 | 10 | 1007.4 |
| 20260504034908 | 16 | 26 | 4.8 | 4.8 | 0.00 | 0.00 | 0.00 | 10 | 1007.4 |
| 20260504034405 | 16 | 31 | 8.0 | 9.7 | 0.00 | 0.00 | 0.00 | 10 | 1007.5 |
| 20260504033902 | 16 | 31 | 11.3 | 12.9 | 0.00 | 0.00 | 0.00 | 10 | 1007.2 |
| 20260504033400 | 16 | 26 | 9.7 | 11.3 | 0.00 | 0.00 | 0.00 | 10 | 1007.4 |
| 20260504032856 | 16 | 22 | 11.3 | 12.9 | 0.00 | 0.00 | 0.00 | 10 | 1007.3 |
| 20260504032353 | 16 | 20 | 9.7 | 11.3 | 0.00 | 0.00 | 0.00 | 10 | 1007.2 |
| 20260504031850 | 16 | 20 | 11.3 | 14.5 | 0.00 | 0.00 | 0.00 | 10 | 1007.2 |
| 20260504031347 | 16 | 20 | 9.7 | 14.5 | 0.00 | 0.00 | 0.00 | 10 | 1007.2 |
| 20260504030844 | 17 | 20 | 11.3 | 12.9 | 0.00 | 0.00 | 0.00 | 10 | 1006.8 |
| 20260504030342 | 17 | 20 | 11.3 | 14.5 | 0.00 | 0.00 | 0.00 | 10 | 1007.0 |
| 20260504025837 | 16 | 20 | 9.7 | 9.7 | 0.00 | 0.00 | 0.00 | 10 | 1007.0 |
| 20260504025334 | 17 | 20 | 6.4 | 8.0 | 0.00 | 0.00 | 0.00 | 10 | 1007.2 |
| 20260504024831 | 17 | 20 | 8.0 | 9.7 | 0.00 | 0.00 | 0.00 | 10 | 1006.8 |
| 20260504024327 | 17 | 21 | 9.7 | 11.3 | 0.00 | 0.00 | 0.00 | 10 | 1006.7 |
| 20260504023824 | 17 | 20 | 6.4 | 8.0 | 0.00 | 0.00 | 0.00 | 10 | 1006.7 |
| 20260504023321 | 18 | 20 | 6.4 | 8.0 | 0.00 | 0.00 | 0.00 | 10 | 1007.0 |
| 20260504022816 | 18 | 20 | 6.4 | 9.7 | 0.00 | 0.00 | 0.00 | 10 | 1006.7 |
| 20260504022314 | 18 | 20 | 8.0 | 9.7 | 0.00 | 0.00 | 0.00 | 10 | 1006.7 |
| 20260504021810 | 19 | 20 | 9.7 | 12.9 | 0.00 | 0.00 | 0.00 | 10 | 1006.7 |
| 20260504021308 | 20 | 20 | 11.3 | 12.9 | 0.00 | 0.00 | 0.00 | 10 | 1006.5 |
| 20260504020804 | 20 | 20 | 11.3 | 14.5 | 0.00 | 0.00 | 0.00 | 10 | 1006.5 |
| 20260504020301 | 20 | 20 | 11.3 | 12.9 | 0.00 | 0.00 | 0.00 | 10 | 1006.4 |
| 20260504015757 | 20 | 20 | 11.3 | 12.9 | 0.00 | 0.00 | 0.00 | 10 | 1006.6 |
| 20260504015253 | 20 | 20 | 14.5 | 16.1 | 0.00 | 0.00 | 0.00 | 10 | 1006.6 |
| 20260504014749 | 20 | 22 | 14.5 | 16.1 | 0.00 | 0.00 | 0.00 | 10 | 1006.7 |
| 20260504014246 | 20 | 22 | 14.5 | 16.1 | 0.00 | 0.00 | 0.00 | 10 | 1006.5 |
| 20260504013744 | 21 | 22 | 9.7 | 14.5 | 0.00 | 0.00 | 0.00 | 10 | 1006.4 |
| 20260504013241 | 21 | 24 | 19.3 | 24.1 | 0.00 | 0.00 | 0.00 | 10 | 1006.7 |
| 20260504012738 | 21 | 20 | 17.7 | 22.5 | 0.00 | 0.00 | 0.00 | 10 | 1006.4 |
| 20260504012236 | 21 | 20 | 12.9 | 16.1 | 0.00 | 0.00 | 0.00 | 10 | 1006.5 |
| 20260504011732 | 21 | 21 | 19.3 | 22.5 | 0.00 | 0.00 | 0.00 | 10 | 1006.7 |
| 20260504011229 | 21 | 21 | 17.7 | 20.9 | 0.00 | 0.00 | 0.00 | 10 | 1006.4 |
| 20260504010725 | 21 | 20 | 20.9 | 24.1 | 0.00 | 0.00 | 0.00 | 10 | 1006.5 |
| 20260504010220 | 22 | 20 | 20.9 | 24.1 | 0.00 | 0.00 | 0.00 | 10 | 1006.8 |
| 20260504005717 | 22 | 20 | 17.7 | 24.1 | 0.00 | 0.00 | 0.00 | 10 | 1006.7 |
| 20260504005215 | 22 | 21 | 17.7 | 22.5 | 0.00 | 0.00 | 0.00 | 10 | 1006.8 |
| 20260504004712 | 22 | 22 | 11.3 | 12.9 | 0.00 | 0.00 | 0.00 | 10 | 1006.8 |
| 20260504004209 | 22 | 25 | 19.3 | 22.5 | 0.00 | 0.00 | 0.00 | 10 | 1006.8 |
| 20260504003706 | 22 | 27 | 14.5 | 20.9 | 0.00 | 0.00 | 0.00 | 10 | 1006.6 |
| 20260504003203 | 22 | 29 | 22.5 | 27.4 | 0.00 | 0.00 | 0.00 | 10 | 1006.5 |
| 20260504002659 | 22 | 30 | 25.7 | 29.0 | 0.00 | 0.00 | 0.00 | 10 | 1006.6 |
| 20260504002156 | 22 | 27 | 19.3 | 24.1 | 0.00 | 0.00 | 0.00 | 10 | 1006.7 |
| 20260504001655 | 22 | 28 | 17.7 | 22.5 | 0.00 | 0.00 | 0.00 | 10 | 1006.8 |
| 20260504001150 | 22 | 32 | 14.5 | 17.7 | 0.00 | 0.00 | 0.00 | 10 | 1006.8 |
| 20260504000647 | 23 | 38 | 20.9 | 24.1 | 0.00 | 0.00 | 0.00 | 10 | 1006.7 |
| 20260504000145 | 23 | 47 | 16.1 | 20.9 | 0.00 | 0.00 | 0.00 | 10 | 1006.4 |
| 20260503235643 | 22 | 61 | 14.5 | 20.9 | 0.00 | 0.00 | 0.00 | 10 | 1006.7 |
| 20260503235139 | 23 | 64 | 22.5 | 25.7 | 0.00 | 0.00 | 0.00 | 10 | 1006.7 |
| 20260503234638 | 23 | 56 | 14.5 | 25.7 | 0.00 | 0.00 | 0.00 | 10 | 1006.6 |
| 20260503234135 | 23 | 42 | 11.3 | 12.9 | 0.00 | 0.00 | 0.00 | 10 | 1006.7 |
| 20260503233632 | 23 | 34 | 14.5 | 22.5 | 0.00 | 0.00 | 0.00 | 10 | 1006.8 |
| 20260503233127 | 23 | 39 | 9.7 | 11.3 | 0.00 | 0.00 | 0.00 | 10 | 1007.2 |
| 20260503232625 | 23 | 49 | 9.7 | 12.9 | 0.00 | 0.00 | 0.00 | 10 | 1007.1 |
| 20260503232122 | 23 | 63 | 11.3 | 14.5 | 0.00 | 0.00 | 0.00 | 10 | 1007.1 |
| 20260503231620 | 23 | 65 | 11.3 | 12.9 | 0.00 | 0.00 | 0.00 | 10 | 1007.1 |
| 20260503231116 | 23 | 53 | 19.3 | 20.9 | 0.00 | 0.00 | 0.00 | 10 | 1007.1 |
| 20260503230613 | 23 | 47 | 6.4 | 9.7 | 0.00 | 0.00 | 0.00 | 10 | 1007.1 |
| 20260503230110 | 23 | 46 | 1.6 | 1.6 | 0.00 | 0.00 | 0.00 | 10 | 1007.1 |
| 20260503225608 | 23 | 53 | 8.0 | 9.7 | 0.00 | 0.00 | 0.00 | 10 | 1007.1 |
| 20260503225102 | 23 | 51 | 12.9 | 14.5 | 0.00 | 0.00 | 0.00 | 10 | 1007.3 |
| 20260503224600 | 23 | 51 | 16.1 | 17.7 | 0.00 | 0.00 | 0.00 | 10 | 1007.5 |
| 20260503224058 | 23 | 53 | 4.8 | 8.0 | 0.00 | 0.00 | 0.00 | 10 | 1007.7 |
| 20260503223556 | 23 | 60 | 8.0 | 9.7 | 0.00 | 0.00 | 0.00 | 10 | 1007.5 |
| 20260503223051 | 23 | 68 | 11.3 | 20.9 | 0.00 | 0.00 | 0.00 | 10 | 1007.7 |
| 20260503222549 | 23 | 51 | 12.9 | 17.7 | 0.00 | 0.00 | 0.00 | 10 | 1007.6 |
| 20260503222047 | 23 | 39 | 6.4 | 9.7 | 0.00 | 0.00 | 0.00 | 10 | 1007.8 |
| 20260503221545 | 23 | 45 | 12.9 | 16.1 | 0.00 | 0.00 | 0.00 | 10 | 1007.9 |
| 20260503221042 | 23 | 49 | 14.5 | 16.1 | 0.00 | 0.00 | 0.00 | 10 | 1007.9 |
| 20260503220538 | 23 | 30 | 8.0 | 11.3 | 0.00 | 0.00 | 0.00 | 10 | 1008.1 |
| 20260503220035 | 22 | 32 | 14.5 | 17.7 | 0.00 | 0.00 | 0.00 | 10 | 1008.1 |
| 20260503215532 | 22 | 34 | 0.0 | 0.0 | 0.00 | 0.00 | 0.00 | 10 | 1008.3 |
| 20260503215029 | 22 | 44 | 12.9 | 14.5 | 0.00 | 0.00 | 0.00 | 10 | 1008.3 |
| 20260503214527 | 22 | 51 | 9.7 | 12.9 | 0.00 | 0.00 | 0.00 | 10 | 1008.4 |
| 20260503214024 | 23 | 60 | 14.5 | 20.9 | 0.00 | 0.00 | 0.00 | 10 | 1008.5 |
| 20260503213522 | 23 | 40 | 9.7 | 12.9 | 0.00 | 0.00 | 0.00 | 10 | 1008.4 |
| 20260503213018 | 23 | 28 | 6.4 | 9.7 | 0.00 | 0.00 | 0.00 | 10 | 1008.8 |
| 20260503212516 | 22 | 27 | 3.2 | 3.2 | 0.00 | 0.00 | 0.00 | 10 | 1008.8 |
| 20260503212013 | 22 | 28 | 3.2 | 3.2 | 0.00 | 0.00 | 0.00 | 10 | 1009.1 |
| 20260503211510 | 22 | 32 | 16.1 | 17.7 | 0.00 | 0.00 | 0.00 | 10 | 1008.9 |
| 20260503211011 | 22 | 36 | 9.7 | 12.9 | 0.00 | 0.00 | 0.00 | 10 | 1008.9 |
| 20260503210508 | 23 | 35 | 3.2 | 4.8 | 0.00 | 0.00 | 0.00 | 10 | 1008.7 |
| 20260503210003 | 22 | 40 | 0.0 | 0.0 | 0.00 | 0.00 | 0.00 | 10 | 1009.2 |
| 20260503205500 | 22 | 53 | 4.8 | 8.0 | 0.00 | 0.00 | 0.00 | 10 | 1009.3 |
| 20260503204956 | 22 | 50 | 0.0 | 0.0 | 0.00 | 0.00 | 0.00 | 10 | 1009.5 |
| 20260503204454 | 22 | 39 | 4.8 | 9.7 | 0.00 | 0.00 | 0.00 | 10 | 1009.4 |
| 20260503203950 | 21 | 52 | 8.0 | 8.0 | 0.00 | 0.00 | 0.00 | 10 | 1009.6 |
| 20260503203448 | 21 | 89 | 11.3 | 12.9 | 0.00 | 0.00 | 0.00 | 10 | 1009.6 |
| 20260503202944 | 22 | 75 | 14.5 | 14.5 | 0.00 | 0.00 | 0.00 | 10 | 1009.8 |
| 20260503202443 | 21 | 71 | 6.4 | 9.7 | 0.00 | 0.00 | 0.00 | 10 | 1009.8 |
| 20260503201941 | 21 | 79 | 4.8 | 8.0 | 0.00 | 0.00 | 0.00 | 10 | 1010.1 |
| 20260503201438 | 21 | 93 | 9.7 | 12.9 | 0.00 | 0.00 | 0.00 | 10 | 1010.1 |
| 20260503200935 | 21 | 119 | 17.7 | 20.9 | 0.00 | 0.00 | 0.00 | 10 | 1010.2 |
| 20260503200431 | 21 | 128 | 12.9 | 12.9 | 0.00 | 0.00 | 0.00 | 10 | 1010.4 |
| 20260503195928 | 22 | 123 | 8.0 | 11.3 | 0.00 | 0.00 | 0.00 | 10 | 1010.6 |
| 20260503195426 | 21 | 128 | 14.5 | 16.1 | 0.00 | 0.00 | 0.00 | 10 | 1010.6 |
| 20260503194922 | 21 | 129 | 16.1 | 17.7 | 0.00 | 0.00 | 0.00 | 10 | 1010.6 |
| 20260503194419 | 21 | 141 | 14.5 | 16.1 | 0.00 | 0.00 | 0.00 | 10 | 1010.4 |
| 20260503193914 | 21 | 147 | 27.4 | 32.2 | 0.00 | 0.00 | 0.00 | 10 | 1010.6 |
| 20260503193410 | 21 | 136 | 14.5 | 16.1 | 0.00 | 0.00 | 0.00 | 10 | 1010.8 |
| 20260503192906 | 21 | 125 | 11.3 | 14.5 | 0.00 | 0.00 | 0.00 | 10 | 1011.0 |
| 20260503192401 | 20 | 111 | 6.4 | 9.7 | 0.00 | 0.00 | 0.00 | 10 | 1011.0 |
| 20260503191858 | 21 | 124 | 0.0 | 1.6 | 0.00 | 0.00 | 0.00 | 10 | 1011.3 |
| 20260503191355 | 20 | 128 | 4.8 | 4.8 | 0.00 | 0.00 | 0.00 | 10 | 1011.6 |
| 20260503190852 | 21 | 141 | 17.7 | 20.9 | 0.00 | 0.00 | 0.00 | 10 | 1011.6 |
| 20260503190349 | 20 | 146 | 27.4 | 32.2 | 0.00 | 0.00 | 0.00 | 10 | 1011.5 |
| 20260503185846 | 20 | 140 | 12.9 | 16.1 | 0.00 | 0.00 | 0.00 | 10 | 1011.5 |
| 20260503185342 | 20 | 143 | 22.5 | 25.7 | 0.00 | 0.00 | 0.00 | 10 | 1011.8 |
| 20260503184842 | 20 | 141 | 11.3 | 12.9 | 0.00 | 0.00 | 0.00 | 10 | 1011.7 |
| 20260503184338 | 20 | 135 | 9.7 | 12.9 | 0.00 | 0.00 | 0.00 | 10 | 1011.9 |
| 20260503183834 | 20 | 121 | 11.3 | 14.5 | 0.00 | 0.00 | 0.00 | 13 | 1012.0 |
| 20260503183332 | 20 | 110 | 8.0 | 11.3 | 0.00 | 0.00 | 0.00 | 12 | 1011.9 |
| 20260503182829 | 20 | 126 | 6.4 | 9.7 | 0.00 | 0.00 | 0.00 | 12 | 1012.2 |
| 20260503182328 | 19 | 125 | 14.5 | 14.5 | 0.00 | 0.00 | 0.00 | 11 | 1012.2 |
| 20260503181825 | 20 | 124 | 22.5 | 29.0 | 0.00 | 0.00 | 0.00 | 13 | 1012.0 |
| 20260503181322 | 20 | 112 | 11.3 | 12.9 | 0.00 | 0.00 | 0.00 | 15 | 1012.0 |
| 20260503180818 | 20 | 103 | 14.5 | 16.1 | 0.00 | 0.00 | 0.00 | 16 | 1011.9 |
| 20260503180317 | 20 | 92 | 19.3 | 24.1 | 0.00 | 0.00 | 0.00 | 20 | 1012.4 |
| 20260503175812 | 20 | 91 | 8.0 | 11.3 | 0.00 | 0.00 | 0.00 | 22 | 1012.6 |
| 20260503175311 | 20 | 95 | 8.0 | 9.7 | 0.00 | 0.00 | 0.00 | 22 | 1012.8 |
| 20260503174806 | 18 | 96 | 11.3 | 12.9 | 0.00 | 0.00 | 0.00 | 23 | 1012.7 |
| 20260503174305 | 18 | 89 | 11.3 | 20.9 | 0.00 | 0.00 | 0.00 | 25 | 1012.7 |
| 20260503173800 | 18 | 91 | 20.9 | 24.1 | 0.00 | 0.00 | 0.00 | 24 | 1013.2 |
| 20260503173256 | 18 | 87 | 20.9 | 24.1 | 0.00 | 0.00 | 0.00 | 28 | 1012.8 |
| 20260503172753 | 17 | 77 | 12.9 | 14.5 | 0.00 | 0.00 | 0.00 | 30 | 1013.3 |
| 20260503172251 | 18 | 60 | 17.7 | 20.9 | 0.00 | 0.00 | 0.00 | 29 | 1013.2 |
| 20260503171747 | 18 | 48 | 11.3 | 12.9 | 0.00 | 0.00 | 0.00 | 34 | 1013.3 |
| 20260503171244 | 18 | 57 | 19.3 | 20.9 | 0.00 | 0.00 | 0.00 | 32 | 1013.3 |
| 20260503170741 | 18 | 50 | 11.3 | 12.9 | 0.00 | 0.00 | 0.00 | 32 | 1013.6 |
| 20260503170238 | 17 | 40 | 14.5 | 17.7 | 0.00 | 0.00 | 0.00 | 35 | 1013.5 |
| 20260503160200 | 15 | 38 | 16.1 | 17.7 | 0.00 | 0.00 | 0.00 | 41 | 1014.1 |
| 20260503150630 | 13 | 58 | 19.3 | 24.1 | 0.00 | 0.00 | 0.00 | 51 | 1014.7 |
| 20260503150126 | 12 | 54 | 12.9 | 12.9 | 0.00 | 0.00 | 0.00 | 54 | 1014.6 |